Printer-friendly version

IAU Minor Planet Center

Minor Planet Center

MPEC 2006-M21 : 2006 MV1

The following Minor Planet Electronic Circular may be linked-to from your own Web pages, but must not otherwise be redistributed electronically.


Read MPEC 2006-M20 Read MPEC 2006-M22


M.P.E.C. 2006-M21                                Issued 2006 June 22, 02:23 UT

     The Minor Planet Electronic Circulars contain information on unusual
         minor planets and routine data on comets.  They are published
   on behalf of Commission 20 of the International Astronomical Union by the
          Minor Planet Center, Smithsonian Astrophysical Observatory,
                          Cambridge, MA 02138, U.S.A.

                  Supported in part by the Brinson Foundation
                  Supported in part by the TABASGO Foundation
             Prepared using the Tamkin Foundation Computer Network

                              MPC@CFA.HARVARD.EDU
          URL http://cfa-www.harvard.edu/iau/mpc.html  ISSN 1523-6714

                                   2006 MV1

                           Revision to MPEC 2006-M15

Additional Observations:
     K06M01V  C2006 06 21.98855918 21 39.18 +47 45 18.2                 EM021J95
     K06M01V  C2006 06 21.98910918 21 42.06 +47 45 51.2                 EM021J95
     K06M01V  C2006 06 21.98974518 21 45.28 +47 46 30.0          18.1 R EM021J95

Observer details:
J95 Great Shefford.  Observer P. Birtwhistle.  0.40-m f/6.0 Schmidt-Cassegrain
    + CCD.

Orbital elements:
2006 MV1                                                 Earth MOID = 0.0066 AU
Epoch 2006 Mar. 6.0 TT = JDT 2453800.5                  MPC
M 273.50973              (2000.0)            P               Q
n   0.65698929     Peri.   30.18931     +0.43688565     +0.89597744
a   1.3104804      Node   265.81830     -0.84045509     +0.37500899
e   0.2371952      Incl.    4.58473     -0.32057163     +0.23789215
P   1.50           H   26.6           G   0.15           U   5
Residuals in seconds of arc
060619 704  0.5+  0.3+    060620 703  1.5-  0.7-    060621 J95  0.1+  0.4+
060619 704  0.2+  0.3-    060620 703  0.3+  0.7+    060621 J95  0.5+  0.2+
060619 704  0.4+  0.2-    060620 703  0.0   0.1+    060621 J95  0.2-  0.7+
060619 704  0.8-  0.1+    060620 703  0.1+  0.1-

Ephemeris:
2006 MV1                 a,e,i = 1.31, 0.24, 5                   q = 0.9996
Date    TT    R. A. (2000) Decl.     Delta      r     Elong.  Phase     V
2006 06 14    14 47.66   -31 02.5    0.0219   1.033   143.6    35.7    19.8
2006 06 15    14 53.92   -28 49.8    0.0191   1.031   144.1    35.3    19.5
2006 06 16    15 01.95   -25 51.3    0.0164   1.029   144.9    34.6    19.2
2006 06 17    15 12.50   -21 41.7    0.0138   1.027   145.8    33.8    18.8
2006 06 18    15 26.85   -15 36.1    0.0114   1.025   146.6    33.0    18.3
2006 06 19    15 47.20   -06 16.3    0.00914  1.024   146.0    33.7    17.9
2006 06 20    16 17.61   +08 10.7    0.00741  1.022   140.7    39.1    17.6
2006 06 21    17 05.59   +28 12.4    0.00656  1.020   126.9    52.8    17.7
2006 06 22    18 22.41   +47 57.3    0.00692  1.019   108.5    71.2    18.3
2006 06 23    20 08.88   +59 20.2    0.00832  1.017    93.4    86.1    19.3
2006 06 24    21 51.13   +62 18.7    0.0104   1.015    83.7    95.7    20.1
2006 06 25    23 01.38   +61 28.3    0.0127   1.014    77.8   101.5    20.9
2006 06 26    23 44.96   +59 42.1    0.0152   1.012    74.0   105.2    21.4
2006 06 27    00 12.81   +57 56.9    0.0178   1.011    71.6   107.4    21.9
2006 06 28    00 31.69   +56 25.4    0.0205   1.010    70.1   108.8    22.3
2006 06 29    00 45.21   +55 08.3    0.0232   1.009    69.1   109.7    22.6
2006 06 30    00 55.36   +54 03.7    0.0260   1.007    68.5   110.2    22.9
2006 07 01    01 03.26   +53 09.3    0.0287   1.006    68.1   110.4    23.1
2006 07 02    01 09.61   +52 22.9    0.0315   1.005    68.0   110.4    23.3
2006 07 03    01 14.86   +51 43.2    0.0343   1.004    68.0   110.2    23.5
2006 07 04    01 19.29   +51 08.7    0.0371   1.003    68.1   110.0    23.6

Gareth V. Williams           (C) Copyright 2006 MPC           M.P.E.C. 2006-M21

Read MPEC 2006-M20 Read MPEC 2006-M22


Our Web policy. Index to the CBAT/MPC/ICQ pages.


Valid HTML 4.01!